Location: Roy
(47.3334°N, 108.9587°W)
Time: 16:33:46
(UTC+00:00)

X-37B - Visible Passes

Search period start: 21 January 2022 00:00
Search period end: 31 January 2022 00:00
Orbit: 334 x 337 km, 45.0° (Epoch: 11 January)

Date Brightness Start Highest point End Pass type
(mag) Time Alt. Az. Time Alt. Az. Time Alt. Az.
27 Jan 3.4 02:27:14 10° SSW 02:27:26 11° SSW 02:27:26 11° SSW visible
28 Jan 2.8 01:13:47 10° S 01:14:48 11° SSE 01:15:50 10° SE visible
28 Jan 3.8 02:47:07 10° SW 02:47:10 10° SW 02:47:10 10° SW visible
29 Jan 2.0 01:32:40 10° SSW 01:34:56 22° SSE 01:35:38 20° SE visible
30 Jan 1.2 01:52:33 10° SW 01:55:11 36° SSE 01:55:16 36° SSE visible
